Date String (YYYY-MM-DD hh:mm:ss) UTC,Instrument flags,Ambient pressure (hPa),Sample flow (lpm),Bypass flow (lpm),Sample temperature (°C),Ambient temperature (°C),ASC tube jacket temperature (°C),LED temperature (°C),Box temperature (°C),Sample RH (%),Span deviation,Mass concentration (μg/m³),Mass concentration (μg/m³),Mass concentration (μg/m³)
DateTimeUTC,F1_M11,P_M11,Q1_M11,Q2_M11,T1_M11,T2_M11,T3_M11,T4_M11,T5_M11,U1_M11,ZSPAN_M11,X0_M11,X2_M11,X1_M11
2022-09-07 00:00:00,,0831.2,5.01,0.00,29.6,28.3,00.0,38.1,31.5,16.6,0002.0,0032.84,0021.06,0019.35
2022-09-07 00:01:00,,0831.2,4.99,0.00,29.6,28.0,00.0,38.2,31.5,16.7,0002.6,0033.13,0021.08,0019.37
2022-09-07 00:02:00,,0831.1,5.00,0.00,29.6,26.9,00.0,38.2,31.4,16.8,0002.9,0033.02,0021.04,0019.37
2022-09-07 00:03:00,,0831.2,5.00,0.00,29.5,26.7,00.0,38.1,31.4,16.6,0003.2,0032.98,0021.09,0019.38
2022-09-07 00:04:00,,0831.2,4.99,0.00,29.5,27.0,00.0,38.1,31.3,16.2,0003.4,0032.88,0021.14,0019.39
2022-09-07 00:05:00,,0831.2,5.01,0.00,29.5,27.3,00.0,38.1,31.3,16.0,0003.8,0032.53,0021.14,0019.37
2022-09-07 00:06:00,,0831.2,5.00,0.00,29.5,27.7,00.0,38.1,31.3,15.8,0003.6,0032.69,0021.13,0019.37
2022-09-07 00:07:00,,0831.2,5.00,0.00,29.5,28.0,00.0,38.1,31.4,15.8,0003.5,0032.37,0021.15,0019.39
2022-09-07 00:08:00,,0831.2,4.98,0.00,29.6,28.2,00.0,38.1,31.5,15.8,0003.6,0031.09,0021.10,0019.41
2022-09-07 00:09:00,,0831.1,5.01,0.00,29.6,27.9,00.0,38.2,31.4,15.5,0003.7,0030.46,0021.11,0019.43
2022-09-07 00:10:00,,0831.2,4.99,0.00,29.6,26.8,00.0,38.2,31.3,15.7,0003.4,0030.51,0021.09,0019.46
2022-09-07 00:11:00,,0831.2,5.01,0.00,29.5,26.7,00.0,38.1,31.4,15.8,0003.5,0030.62,0021.12,0019.46
2022-09-07 00:12:00,,0831.2,5.00,0.00,29.5,27.0,00.0,38.1,31.3,15.8,0003.4,0030.86,0021.12,0019.46
2022-09-07 00:13:00,,0831.2,5.00,0.00,29.5,27.3,00.0,38.1,31.2,15.9,0003.8,0031.30,0021.14,0019.47
2022-09-07 00:14:00,,0831.2,5.00,0.00,29.5,27.6,00.0,38.1,31.3,15.8,0003.6,0031.28,0021.06,0019.44
2022-09-07 00:15:00,,0831.2,4.99,0.00,29.5,27.9,00.0,38.1,31.4,15.8,0003.5,0030.95,0021.04,0019.46
2022-09-07 00:16:00,,0831.2,5.01,0.00,29.6,28.2,00.0,38.1,31.5,15.7,0003.6,0030.71,0021.05,0019.47
2022-09-07 00:17:00,,0831.2,4.98,0.00,29.6,27.9,00.0,38.2,31.5,15.4,0003.5,0030.47,0021.05,0019.48
2022-09-07 00:18:00,,0831.2,5.00,0.00,29.6,26.8,00.0,38.2,31.3,15.6,0003.5,0031.25,0021.07,0019.50
2022-09-07 00:19:00,,0831.2,5.00,0.00,29.5,26.6,00.0,38.1,31.3,15.7,0003.1,0032.11,0021.07,0019.50
2022-09-07 00:20:00,,0831.2,5.00,0.00,29.5,26.9,00.0,38.1,31.3,15.8,0003.4,0033.07,0021.10,0019.51
2022-09-07 00:21:00,,0831.2,5.00,0.00,29.5,27.2,00.0,38.1,31.2,16.0,0003.6,0032.10,0021.09,0019.52
2022-09-07 00:22:00,,0831.2,4.99,0.00,29.5,27.6,00.0,38.1,31.2,16.2,0003.2,0033.44,0021.13,0019.53
2022-09-07 00:23:00,,0831.2,5.00,0.00,29.5,27.9,00.0,38.1,31.3,15.9,0003.0,0033.92,0021.14,0019.54
2022-09-07 00:24:00,,0831.2,5.01,0.00,29.6,28.1,00.0,38.1,31.4,15.9,0002.2,0033.30,0021.12,0019.54
2022-09-07 00:25:00,,0831.2,4.98,0.00,29.6,28.3,00.0,38.2,31.5,16.1,0002.5,0033.59,0021.19,0019.55
2022-09-07 00:26:00,,0831.2,5.00,0.00,29.6,27.4,00.0,38.2,31.4,16.0,0001.9,0034.11,0021.23,0019.57
2022-09-07 00:27:00,,0831.2,5.00,0.00,29.5,26.6,00.0,38.2,31.3,15.9,0001.5,0034.00,0021.18,0019.56
2022-09-07 00:28:00,,0831.2,5.01,0.00,29.5,26.8,00.0,38.1,31.3,16.0,0001.6,0034.22,0021.21,0019.56
2022-09-07 00:29:00,,0831.2,4.99,0.00,29.5,27.1,00.0,38.1,31.3,15.9,0001.2,0034.03,0021.24,0019.54
2022-09-07 00:30:00,,0831.2,4.99,0.00,29.5,27.4,00.0,38.1,31.2,15.7,0001.5,0033.73,0021.23,0019.53
2022-09-07 00:31:00,,0831.1,5.01,0.00,29.5,27.7,00.0,38.1,31.3,15.8,0001.6,0033.31,0021.20,0019.52
2022-09-07 00:32:00,,0831.2,5.01,0.00,29.5,28.0,00.0,38.1,31.4,15.9,0001.8,0034.51,0021.19,0019.52
2022-09-07 00:33:00,,0831.2,4.98,0.00,29.6,28.3,00.0,38.1,31.5,15.6,0002.3,0034.64,0021.21,0019.54
2022-09-07 00:34:00,,0831.2,5.00,0.00,29.6,27.9,00.0,38.2,31.5,16.2,0002.1,0033.75,0021.21,0019.55
2022-09-07 00:35:00,,0831.2,5.00,0.00,29.6,26.8,00.0,38.2,31.3,16.8,0002.0,0034.87,0021.18,0019.59
2022-09-07 00:36:00,,0831.2,5.00,0.00,29.5,26.6,00.0,38.1,31.3,16.2,0002.0,0035.69,0021.26,0019.67
2022-09-07 00:37:00,,0831.1,5.01,0.00,29.5,26.9,00.0,38.1,31.2,16.0,0002.0,0036.20,0021.29,0019.71
2022-09-07 00:38:00,,0831.1,4.99,0.00,29.4,27.2,00.0,38.1,31.1,16.2,0002.5,0038.04,0021.41,0019.78
2022-09-07 00:39:00,,0831.2,5.00,0.00,29.5,27.5,00.0,38.1,31.2,16.4,0002.3,0038.32,0021.47,0019.83
2022-09-07 00:40:00,,0831.1,5.01,0.00,29.5,27.8,00.0,38.1,31.3,15.5,0002.8,0038.81,0021.47,0019.92
2022-09-07 00:41:00,,0831.2,5.00,0.00,29.5,28.1,00.0,38.1,31.4,15.7,0003.4,0038.04,0021.61,0020.10
2022-09-07 00:42:00,,0831.1,4.99,0.00,29.6,27.8,00.0,38.1,31.5,16.0,0003.6,0037.26,0021.84,0020.27
2022-09-07 00:43:00,,0831.2,5.00,0.00,29.5,26.7,00.0,38.1,31.3,16.0,0003.7,0036.47,0022.03,0020.43
2022-09-07 00:44:00,,0831.1,5.00,0.00,29.5,26.5,00.0,38.1,31.3,15.6,0003.8,0036.71,0022.19,0020.57
2022-09-07 00:45:00,,0831.1,5.01,0.00,29.4,26.8,00.0,38.1,31.2,15.5,0003.9,0036.41,0022.30,0020.71
2022-09-07 00:46:00,,0831.1,4.99,0.00,29.4,27.1,00.0,38.1,31.1,15.5,0004.3,0036.47,0022.45,0020.80
2022-09-07 00:47:00,,0831.1,5.00,0.00,29.4,27.4,00.0,38.1,31.2,15.5,0004.5,0037.10,0022.54,0020.89
2022-09-07 00:48:00,,0831.1,5.01,0.00,29.4,27.7,00.0,38.1,31.3,15.5,0004.6,0037.91,0022.68,0021.00
2022-09-07 00:49:00,,0831.1,5.01,0.00,29.5,28.0,00.0,38.1,31.4,15.3,0004.8,0036.84,0022.77,0021.12
2022-09-07 00:50:00,,0831.1,4.98,0.00,29.5,28.1,00.0,38.1,31.4,15.2,0005.1,0036.92,0022.93,0021.26
2022-09-07 00:51:00,,0831.0,5.00,0.00,29.5,27.2,00.0,38.1,31.4,15.2,0005.1,0037.12,0023.12,0021.35
2022-09-07 00:52:00,,0831.0,5.00,0.00,29.5,26.4,00.0,38.1,31.2,15.1,0004.7,0037.35,0023.17,0021.38
2022-09-07 00:53:00,,0831.0,4.99,0.00,29.4,26.5,00.0,38.1,31.3,15.0,0004.7,0037.37,0023.23,0021.45
2022-09-07 00:54:00,,0831.0,5.01,0.00,29.4,26.8,00.0,38.0,31.2,15.1,0004.3,0037.28,0023.22,0021.49
2022-09-07 00:55:00,,0831.0,5.00,0.00,29.4,27.2,00.0,38.0,31.2,15.0,0004.2,0038.67,0023.24,0021.56
2022-09-07 00:56:00,,0831.0,5.01,0.00,29.4,27.5,00.0,38.0,31.2,15.0,0004.3,0038.40,0023.30,0021.60
2022-09-07 00:57:00,,0831.0,4.98,0.00,29.4,27.8,00.0,38.0,31.3,15.0,0004.2,0037.20,0023.36,0021.65
2022-09-07 00:58:00,,0831.0,5.01,0.00,29.5,28.1,00.0,38.1,31.4,14.9,0003.6,0035.84,0023.35,0021.68
2022-09-07 00:59:00,,0831.0,5.00,0.00,29.5,28.3,00.0,38.1,31.4,14.8,0003.6,0034.15,0023.38,0021.71
